Regional Weather Roundup
Issued by NWS

Home | Current Version | Previous Version | Text Only | Print | Product List | Glossary Off
Versions: 1 2 3 4 5 6 7 8 9 10 11 12 13 14 15 16 17 18 19 20 21 22 23 24 25 26 27 28 29 30 31 32 33 34 35 36 37 38 39 40 41 42 43 44 45 46 47 48 49 50

605
ASUS44 KMEG 222110
RWRTN
TENNESSEE HOURLY STATE WEATHER ROUNDUP
NATIONAL WEATHER SERVICE MEMPHIS TN
400 PM CDT FRI SEP 22 2017

TNZ002-004-019-021-049-052-054-088>092-222200-
WEST TENNESSEE

CITY           SKY/WX    TMP DP  RH WIND       PRES   REMARKS
MEMPHIS INTL   MOSUNNY   92  64  39 VRB6      29.98F HX  93
NWS MEMPHIS      N/A     91 N/A N/A MISG        N/A
JACKSON        MOSUNNY   90  67  46 CALM      29.99F HX  93
DYERSBURG      SUNNY     91  67  44 VRB3      29.99F HX  94
SOMERVILLE     SUNNY     90  66  45 CALM      29.98F HX  92
COVINGTON      SUNNY     90  68  48 S3        29.98F HX  93
BOLIVAR        PTSUNNY   88  66  48 CALM      29.98F HX  90
PARIS          SUNNY     88  68  51 NE8       29.99F HX  91
HUNTINGDON     MOSUNNY   88  66  48 CALM      29.99F HX  90
LEXINGTON      MOSUNNY   88  66  48 CALM      29.99F HX  90
SAVANNAH       SUNNY     84  75  74 CALM      29.98F HX  92
$$

TNZ008-025-027-028-033-062-065-066-222200-
NORTH MIDDLE TENNESSEE

CITY           SKY/WX    TMP DP  RH WIND       PRES   REMARKS
NASHVILLE      MOSUNNY   91  66  43 CALM      30.01F HX  93
PORTLAND       SUNNY     88  66  48 E6        30.02S HX  90
CLARKSVILLE    MOSUNNY   89  63  41 VRB3      30.01F HX  90
SMYRNA         MOSUNNY   88  66  48 N5        30.02F HX  90
COOKEVILLE     PTSUNNY   88  66  48 CALM      30.02F HX  90
GALLATIN       SUNNY     90  64  43 CALM      30.03F HX  91
CROSSVILLE     MOSUNNY   79  66  64 CALM      30.09F
$$

TNZ061-075-076-078-094-096-097-222200-
SOUTH MIDDLE TENNESSEE

CITY           SKY/WX    TMP DP  RH WIND       PRES   REMARKS
FAYETTEVILLE   SUNNY     86  64  48 N5        30.01F
TULLAHOMA      MOSUNNY   88  61  40 SW3       30.04S
WINCHESTER     SUNNY     88  64  45 SE3       30.02F
MCMINNVILLE    SUNNY     88  68  51 NW5       30.03F HX  91
COLUMBIA       SUNNY     90 N/A N/A NE3       29.98F
SHELBYVILLE    MOSUNNY   86  64  48 CALM      30.01F
$$

TNZ017-018-042-046-047-222200-
NORTHEAST TENNESSEE

CITY           SKY/WX    TMP DP  RH WIND       PRES   REMARKS
TRI CITIES     PTSUNNY   88  64  44 N6        30.05F
ELIZABETHTON   SUNNY     86  61  42 N5        30.05S
$$

TNZ012-013-036-069-073-074-222200-
CENTRAL EAST TENNESSEE

CITY           SKY/WX    TMP DP  RH WIND       PRES   REMARKS
KNOXVILLE      PTSUNNY   88  61  40 NW7       30.02F
OAK RIDGE      MOSUNNY   89  61  38 CALM      30.03F
DOWNTOWN KNOXV SUNNY     90  63  40 E3        30.01F HX  90
GATLINBURG     SUNNY     90  57  33 VRB3      30.01F
MORRISTOWN     SUNNY     88  59  37 N6        30.02F
JACKSBORO      SUNNY     86  66  51 CALM      30.07F
$$

TNZ083-085-099-222200-
SOUTHEAST TENNESSEE

CITY           SKY/WX    TMP DP  RH WIND       PRES   REMARKS
CHATTANOOGA    MOSUNNY   89  64  43 VRB6      30.00F HX  90
DAYTON         CLEAR     88  70  55 CALM      30.00F HX  92
$$

SKY/WX REPORTED AS FAIR MEANS FEW OR NO CLOUDS BELOW
12 THOUSAND FEET.





USA.gov is the U.S. government's official web portal to all federal, state and local government web resources and services.